Regional Weather Roundup
Issued by NWS

Home | Current Version | Previous Version | Text Only | Print | Product List | Glossary Off
Versions: 1 2 3 4 5 6 7 8 9 10 11 12 13 14 15 16 17 18 19 20 21 22 23 24 25 26 27 28 29 30 31 32 33 34 35 36 37 38 39 40 41 42 43 44 45 46 47 48 49 50

000
ASUS43 KOAX 040602
RWRNE

WEATHER ROUNDUP FOR NEBRASKA
NATIONAL WEATHER SERVICE OMAHA NE
100 AM CDT MON MAY 04 2015

NOTES: SATELLITE DATA IS BEING USED TO AUGMENT CLOUD COVER ABOVE
       12000 FEET.
       "FAIR" INDICATES FEW OR NO CLOUDS BELOW 12,000 FEET WITH NO
       SIGNIFICANT WEATHER AND/OR OBSTRUCTIONS TO VISIBILITY.

  * THESE STATIONS DO NOT REPORT WEATHER SUCH AS RAIN...SNOW OR FOG.

NEZ001>004-019>022-054>056-040700-
NEBRASKA PANHANDLE

CITY           SKY/WX    TMP DP  RH WIND       PRES   REMARKS
SCOTTSBLUFF    MOCLDY    53  40  61 E5        30.07R
6HR MIN TEMP:  52; 6HR MAX TEMP:  68;

ALLIANCE       MOCLDY    51  37  58 E10       30.06S
6HR MIN TEMP:  51; 6HR MAX TEMP:  66;

CHADRON        PTCLDY    47  38  71 NE6       30.06R
6HR MIN TEMP:  46; 6HR MAX TEMP:  68;

KIMBALL        CLOUDY    50  41  71 E6        30.07S
SIDNEY         CLOUDY    51  39  63 E8        30.07R
6HR MIN TEMP:  51; 6HR MAX TEMP:  67;

$$

NEZ057>060-069>072-079>082-040700-
SOUTHWEST NEBRASKA

CITY           SKY/WX    TMP DP  RH WIND       PRES   REMARKS
NORTH PLATTE   MOCLDY    56  39  53 NE14      30.02R
6HR MIN TEMP:  56; 6HR MAX TEMP:  75;

IMPERIAL       CLOUDY    58  38  47 NE15      30.02R
6HR MIN TEMP:  58; 6HR MAX TEMP:  75;

MCCOOK         CLOUDY    61  40  45 MISG      29.98R
6HR MIN TEMP:  60; 6HR MAX TEMP:  84;

$$

NEZ005>010-023>029-035>040-094-040700-
NORTH CENTRAL NEBRASKA

CITY           SKY/WX    TMP DP  RH WIND       PRES   REMARKS
VALENTINE      MOCLDY    52  32  46 NE6       30.08R
6HR MIN TEMP:  52; 6HR MAX TEMP:  70;

AINSWORTH      MOCLDY    56  31  38 NE13      30.06R
BROKEN BOW     MOCLDY    60  39  45 N17G24    29.99R
6HR MIN TEMP:  60; 6HR MAX TEMP:  77;

ORD            MOCLDY    60  38  43 NE13G23   29.98R
6HR MIN TEMP:  60; 6HR MAX TEMP:  76;

$$

NEZ041-046>049-061>064-073>077-083>087-040700-
SOUTH CENTRAL NEBRASKA

CITY           SKY/WX    TMP DP  RH WIND       PRES   REMARKS
GRAND ISLAND   MOCLDY    62  41  46 NE16G23   29.94R
6HR MIN TEMP:  62; 6HR MAX TEMP:  84;

AURORA         PTCLDY    64  49  57 NE21      29.92R
HASTINGS       CLOUDY    64  44  48 N17G24    29.91R
6HR MIN TEMP:  64; 6HR MAX TEMP:  88;

HEBRON         MOCLDY    71  56  59 S5        29.83S
HOLDREGE       CLOUDY    61  40  45 N20       29.93S
KEARNEY *      CLOUDY    61  39  44 N17       29.95R
$$

NEZ011>018-030>034-042>045-040700-
NORTHEAST NEBRASKA

CITY           SKY/WX    TMP DP  RH WIND       PRES   REMARKS
NORFOLK        MOCLDY    64  40  41 NE14      29.96R
6HR MIN TEMP:  63; 6HR MAX TEMP:  84;

ALBION         PTCLDY    61  38  41 NE14G20   29.97R
BLAIR          CLOUDY    64  50  59 N18       29.90R
COLUMBUS *     MOCLDY    61  45  55 NE20G25   29.94R
FREMONT        MOCLDY    64  45  50 N6        29.92R
TEKAMAH        MOCLDY    62  47  57 N18       29.91R
6HR MIN TEMP:  62; 6HR MAX TEMP:  83; 6HR PCP:  0.01;

$$

NEZ050>053-065>068-078-088>093-040700-
SOUTHEAST NEBRASKA

CITY           SKY/WX    TMP DP  RH WIND       PRES   REMARKS
LINCOLN        CLOUDY    62  54  74 NE20      29.91R
6HR MIN TEMP:  62; 6HR MAX TEMP:  74; 6HR PCP:  0.02;

OMAHA EPPLEY   CLOUDY    66  55  67 N8        29.92R THUNDER
6HR MIN TEMP:  66; 6HR MAX TEMP:  79; 6HR PCP: TRACE;

BEATRICE       MOCLDY    70  61  73 S14       29.84R
FALLS CITY     CLOUDY    70  58  65 SE7       29.88R
6HR MIN TEMP:  69; 6HR MAX TEMP:  82;

NEBRASKA CITY  TSTM      58  52  81 NE18G39   29.94R
PLATTSMOUTH    TSTM      62  56  81 W5        29.94R
$$

NEZ044-045-051>053-067-040700-
OMAHA AREA

CITY           SKY/WX    TMP DP  RH WIND       PRES   REMARKS
OMAHA EPPLEY   CLOUDY    66  55  67 N8        29.92R THUNDER
6HR MIN TEMP:  66; 6HR MAX TEMP:  79; 6HR PCP: TRACE;

BLAIR          CLOUDY    64  50  59 N18       29.90R
FREMONT        MOCLDY    64  45  50 N6        29.92R
PLATTSMOUTH    TSTM      62  56  81 W5        29.94R
WAHOO          FAIR      63  51  66 NE3       29.93R
$$


USA.gov is the U.S. government's official web portal to all federal, state and local government web resources and services.